Track IRIDIUM 100 now! 10-day predictions IRIDIUM 100 is classified as:
1 42956U 17061B 26024.16252366 .00000322 00000-0 10801-3 0 9996 2 42956 86.3941 85.4213 0002248 93.8525 266.2928 14.34221423434136